Dewpoint
10 11 12 13 14 15 16 15 15 14 13 12 11 11 11 11 11 10 10 11 10 10 11 11 12 11 3 -3 2 4 6 7 5 1 -2 -4 -2 1 4 7 9 11
10 11 12 13 14 15 15 15 14 14 12 11 11 11 12 12 12 11 11 11 10 9 10 10 10 7 -1 -6 -2 -0 2 3 1 -1 -1 -0 -1 -0 4 8 10 10
10 10 12 13 14 14 14 14 14 13 11 10 10 11 12 12 13 12 12 11 10 9 10 9 4 -2 -7 -6 -4 -3 -2 -1 -2 -2 1 3 2 2 5 9 10 10
11 11 12 13 14 14 14 14 14 13 11 10 10 10 12 13 13 12 12 12 11 10 11 9 5 -2 -6 -6 -4 -3 -3 -2 -2 -3 0 4 5 5 7 9 11 11
11 11 12 13 14 14 14 14 13 13 11 10 9 10 11 13 12 12 12 12 12 11 11 10 8 3 -5 -8 -5 -3 -3 -2 -2 -2 -1 2 5 6 8 10 10 10
12 11 12 12 13 14 14 13 12 12 11 10 9 10 11 12 12 12 12 12 12 12 11 10 9 6 -1 -7 -6 -4 -2 -2 -2 -2 -1 1 4 5 7 8 9 9
12 11 12 12 13 13 13 12 12 11 10 10 10 10 10 11 12 13 12 12 12 11 11 10 9 8 4 -3 -7 -5 -3 -2 -1 -1 -0 1 3 4 5 5 6 7
12 11 11 12 12 12 12 12 11 11 10 10 10 10 11 11 12 13 12 12 12 11 11 10 9 9 7 2 -5 -6 -3 -1 -1 0 1 2 2 3 3 3 3 4
12 11 11 12 12 11 11 10 10 11 10 10 9 9 10 11 12 12 12 12 12 11 11 11 10 9 9 6 -1 -7 -4 -0 0 1 2 2 2 3 3 3 2 2
14 12 12 12 12 11 10 9 10 10 9 9 9 9 10 11 11 12 12 12 12 12 12 11 10 9 9 8 3 -4 -4 -0 2 3 3 3 2 2 2 2 2 1
15 13 12 11 11 10 9 9 9 9 8 8 8 8 9 10 11 11 12 12 11 12 12 11 11 10 9 9 6 -0 -4 -1 2 3 3 3 3 3 2 1 0 -0
16 15 13 11 10 8 8 10 10 9 8 7 6 7 8 9 11 11 11 11 11 11 11 12 11 11 10 9 8 3 -3 -2 2 3 3 3 3 3 3 3 2 1
16 15 12 10 8 7 7 10 10 9 9 7 5 5 6 7 9 11 11 12 12 11 11 11 11 11 11 10 9 6 0 -3 1 4 3 3 3 3 4 4 4 3
15 13 11 9 7 6 7 9 10 10 9 8 6 5 3 4 6 8 10 11 12 12 11 12 12 12 12 11 10 9 4 -2 -1 3 4 3 3 4 4 4 3 2
14 13 12 9 7 7 7 8 9 9 10 10 9 7 5 4 5 7 9 10 11 12 12 12 13 13 12 12 11 10 7 1 -2 2 4 4 4 4 4 5 5 3
15 13 12 11 8 7 7 8 9 9 10 11 10 10 9 9 9 9 10 11 11 12 13 13 13 13 13 12 12 11 9 4 -1 1 4 4 4 4 5 6 6 5
16 14 13 12 10 9 9 10 10 11 12 12 12 12 13 13 12 12 12 12 13 13 13 14 14 14 14 13 13 12 11 8 2 0 3 4 4 4 5 5 6 6
17 15 14 13 13 12 11 12 13 14 14 15 14 14 14 15 15 15 14 14 14 14 14 14 14 14 14 14 13 13 12 10 5 1 2 4 5 5 5 5 6 8
17 17 16 15 15 14 13 14 15 16 16 16 16 15 16 16 16 16 15 15 15 15 15 15 15 15 15 15 14 13 13 11 8 3 2 4 5 5 5 5 5 8
17 17 17 16 16 15 15 16 16 17 17 17 17 16 16 16 16 16 16 16 15 15 15 15 15 16 16 15 15 14 13 12 10 5 2 3 5 5 5 6 6 7
17 17 17 17 17 17 17 17 17 18 18 18 17 17 16 16 16 16 16 16 16 16 15 16 16 16 16 15 15 15 14 13 12 8 3 3 4 5 6 6 6 8
16 17 17 18 17 17 18 18 18 18 18 18 17 17 17 16 16 16 16 16 16 16 16 16 16 16 16 16 15 15 14 14 12 8 4 3 5 8 9 7 7 10
16 17 18 18 17 17 18 19 19 18 18 18 17 17 17 16 16 16 16 15 16 16 16 16 16 16 15 15 14 14 13 13 12 8 5 4 7 10 10 10 10 12
15 16 17 18 17 17 18 19 19 19 18 18 17 17 17 16 16 16 16 16 16 16 16 16 15 15 15 14 14 13 13 12 12 10 8 6 7 8 9 10 10 11
14 15 17 17 17 17 17 18 19 19 18 18 18 17 17 17 17 17 17 17 17 16 16 16 15 15 14 14 14 13 13 13 12 12 11 9 7 7 7 8 8 8
14 16 17 17 17 17 17 18 19 19 18 18 18 18 18 17 17 17 17 17 16 16 16 16 15 15 14 14 14 13 13 13 12 12 12 11 10 9 8 8 8 8
Wind_Speed
34 32 31 31 29 28 28 27 26 25 24 22 22 23 22 21 21 20 18 18 18 17 16 16 14 13 14 15 16 16 14 11 10 10 12 13 14 15 15 15 13 12
34 33 32 32 30 29 29 29 28 27 25 23 23 23 22 21 21 20 18 19 18 17 16 15 14 13 14 14 16 16 15 13 12 10 10 12 15 15 14 15 14 16
36 34 34 33 32 31 30 29 29 28 26 24 24 24 23 23 23 21 20 19 19 18 18 16 13 13 13 13 15 16 15 14 13 11 10 11 14 16 16 16 15 15
37 35 35 35 33 32 31 31 31 30 28 26 25 25 24 25 25 24 22 21 21 20 19 17 15 14 13 13 15 16 16 15 14 13 12 12 13 15 16 17 17 15
37 36 36 36 34 33 32 33 33 32 31 29 27 27 27 27 27 26 25 24 23 22 21 19 18 16 15 14 14 16 16 16 16 15 15 14 14 15 16 17 18 17
38 37 37 37 36 34 34 35 35 33 32 31 29 29 29 29 28 28 27 26 25 24 23 21 20 18 16 15 14 16 17 17 17 17 16 16 15 16 17 17 18 16
40 38 38 38 37 35 35 36 36 35 33 32 31 31 31 30 29 28 28 27 26 26 25 23 22 20 18 16 15 16 18 18 18 18 17 17 16 16 16 16 15 16
41 39 39 38 37 37 37 37 37 37 35 34 33 33 32 31 30 29 29 29 28 28 27 26 24 22 20 19 18 18 19 19 19 18 17 17 16 16 16 16 15 16
43 41 39 39 39 38 38 39 39 38 36 36 36 35 34 33 32 31 30 30 30 30 29 28 27 25 23 22 20 20 20 20 20 18 17 16 15 14 16 17 17 17
45 43 41 41 40 40 39 39 39 39 38 38 37 37 36 36 34 33 32 32 32 32 31 31 30 28 27 25 22 21 21 21 21 19 17 16 14 13 15 17 17 17
46 45 43 42 42 41 40 40 40 40 40 40 39 39 38 37 36 35 35 34 34 34 33 33 32 31 30 28 24 22 22 22 22 21 19 17 15 14 14 16 17 17
48 46 45 44 43 42 42 41 41 41 41 41 41 41 40 39 38 37 37 36 36 35 34 35 34 33 32 30 26 23 23 24 23 22 20 19 17 15 15 16 17 18
50 49 47 45 43 43 43 43 43 42 42 42 42 42 42 41 40 39 38 37 37 36 36 36 36 35 34 32 29 25 24 25 25 24 22 20 19 17 16 17 18 18
51 50 49 46 44 43 44 45 45 44 44 43 43 43 43 43 42 40 39 39 38 37 37 37 37 37 36 34 32 28 26 26 26 25 23 21 20 19 18 17 16 17
52 51 50 48 46 45 45 46 46 46 45 45 44 44 43 43 42 42 41 40 40 39 38 38 38 38 38 37 35 31 28 27 27 26 24 22 21 21 19 18 17 18
52 52 51 49 48 47 46 46 46 46 47 46 46 45 43 42 42 42 42 42 41 40 39 39 39 39 39 38 36 33 30 27 27 27 25 22 22 22 21 19 18 19
52 52 52 51 50 49 48 47 47 46 47 47 46 45 43 42 41 42 42 42 41 40 39 39 40 40 39 38 37 35 32 28 27 27 26 24 23 23 20 18 17 18
51 51 52 52 52 51 49 48 47 47 46 46 45 44 43 41 40 40 41 41 40 39 39 39 39 39 38 38 37 35 33 29 27 27 26 25 24 23 20 17 17 19
51 51 51 52 52 51 49 48 47 47 46 45 44 43 42 40 39 38 39 39 39 39 39 39 38 38 37 36 36 35 33 30 27 27 27 25 24 23 21 19 19 20
52 51 51 51 50 50 49 48 48 47 45 44 43 42 41 40 39 38 38 38 38 38 38 38 37 36 35 35 35 34 32 29 27 27 28 27 25 24 21 21 21 21
54 53 52 50 49 48 48 47 46 46 45 43 41 41 41 41 41 40 39 38 37 37 37 36 35 34 33 33 33 31 30 29 27 28 29 28 26 25 23 22 22 23
55 54 52 50 48 47 46 45 45 44 43 41 40 40 41 40 40 40 39 38 37 36 35 33 31 30 28 28 28 27 26 27 27 28 30 29 28 26 25 23 23 24
55 54 52 50 48 46 45 44 43 43 41 40 40 41 41 41 40 40 38 37 37 36 34 31 28 27 26 25 25 23 23 25 26 27 29 30 29 27 25 24 24 24
55 54 52 50 48 47 45 44 43 41 39 38 39 40 40 40 39 37 35 34 33 32 30 28 26 25 24 24 23 21 20 22 23 25 28 30 30 27 27 27 26 24
55 53 52 51 50 48 46 44 43 39 36 36 37 37 37 36 35 33 31 29 27 25 23 22 20 19 19 19 19 19 19 19 20 22 25 28 29 28 27 27 25 24
55 53 52 51 50 48 46 44 40 36 34 35 36 35 34 33 30 28 25 22 21 19 18 17 16 14 14 14 15 16 17 18 19 21 22 24 26 26 25 24 23 22
Wind_Direction
216 216 215 215 215 215 216 217 217 216 216 214 212 212 215 216 216 217 211 204 210 218 223 230 232 227 221 215 216 222 224 222 221 214 208 198 195 194 186 184 189 193
216 215 215 216 215 214 214 217 218 219 218 216 215 216 218 219 219 221 216 209 215 221 222 228 230 224 219 211 210 219 223 226 226 214 205 196 194 200 193 186 197 206
216 214 214 216 216 213 213 215 217 221 222 219 216 217 219 219 221 223 221 217 221 224 220 218 215 215 217 209 205 214 218 220 222 215 205 197 195 200 198 196 206 212
216 215 216 218 217 215 214 214 216 221 224 222 218 218 218 218 221 224 222 220 223 225 223 217 214 218 222 213 204 207 211 210 211 211 207 203 202 205 206 206 209 214
216 216 218 218 218 216 214 215 218 221 223 223 220 219 219 218 220 223 223 222 223 226 228 224 220 221 222 219 209 204 205 202 200 204 207 206 208 212 215 213 213 217
216 218 219 219 218 216 214 215 220 223 223 223 222 221 222 220 220 222 223 224 225 228 231 230 227 221 219 222 216 207 204 200 196 200 204 205 208 212 215 216 217 221
217 219 219 218 217 217 216 217 220 223 224 224 224 224 225 225 223 224 225 226 227 230 234 236 235 229 223 223 221 213 205 200 197 198 200 204 207 211 216 218 218 217
217 219 219 217 216 217 217 219 221 224 225 225 226 227 228 229 227 226 228 229 230 233 236 238 240 237 230 226 224 217 208 201 199 198 199 203 206 211 214 214 215 216
218 219 218 215 216 217 218 220 221 223 225 227 228 229 230 231 231 230 231 232 233 235 237 238 240 240 235 230 226 221 212 204 200 200 200 203 207 210 210 210 215 217
217 218 216 215 216 218 220 221 221 223 225 228 229 230 231 232 232 232 233 235 236 236 237 237 239 240 239 234 228 223 218 209 203 202 202 203 206 208 209 212 215 217
216 216 215 216 217 219 221 222 222 223 226 228 230 231 233 234 234 234 234 236 238 239 239 239 239 240 240 237 231 225 221 215 209 206 206 205 205 206 210 215 218 219
215 214 215 216 218 220 222 222 222 224 227 229 230 231 233 234 235 236 236 237 239 241 241 241 241 241 240 239 234 227 224 219 214 210 210 210 210 210 212 217 222 224
214 214 215 217 220 222 222 221 222 225 227 230 232 232 233 234 235 237 239 239 240 241 242 243 242 241 240 239 236 231 227 222 217 213 212 213 214 215 215 219 223 227
215 215 216 219 222 223 223 222 223 224 227 230 232 232 234 235 237 238 239 239 240 241 242 243 242 240 239 239 236 233 229 225 220 216 214 214 216 217 218 220 224 229
215 216 217 219 222 223 223 224 224 225 227 229 231 233 235 236 237 238 239 240 240 241 242 242 241 240 240 239 237 234 231 229 225 221 218 217 218 220 222 223 227 232
216 216 217 219 222 223 225 225 225 226 226 228 231 233 234 235 235 237 238 240 241 241 241 241 241 241 241 240 239 237 235 233 229 224 222 220 221 223 225 225 228 234
216 216 217 218 221 223 225 225 226 226 226 227 229 232 233 234 234 236 238 239 240 241 241 242 242 243 242 241 240 238 236 236 233 228 225 223 224 226 227 229 233 237
216 217 218 219 220 221 224 225 226 225 225 225 227 230 232 233 234 236 238 239 240 241 242 243 244 244 243 242 240 239 236 235 235 231 228 226 227 228 231 235 239 240
217 218 219 219 219 220 223 225 224 224 224 225 226 228 230 232 234 236 237 238 239 241 243 244 245 244 243 242 241 239 236 235 235 233 231 230 230 232 234 237 241 243
218 219 219 219 219 220 221 223 223 224 224 225 225 227 229 232 234 236 237 238 240 242 244 245 245 244 243 242 241 238 237 236 236 235 233 232 232 234 237 240 243 245
218 219 218 218 219 219 220 221 222 223 224 224 225 228 230 232 234 236 238 239 240 241 243 244 244 243 242 241 239 238 238 238 236 235 234 233 233 235 237 240 244 246
217 217 217 216 217 218 218 218 220 221 223 224 226 229 231 232 233 236 238 240 241 242 242 242 241 240 239 240 240 240 240 238 235 233 232 232 234 234 236 240 243 244
216 215 214 213 215 216 216 216 218 220 222 225 227 228 230 231 233 235 238 239 241 241 240 239 239 239 240 242 243 242 239 235 232 228 228 231 232 233 236 238 240 243
215 213 211 210 211 214 215 216 217 219 221 224 227 229 231 233 235 236 238 239 240 240 240 240 241 243 244 244 243 240 235 232 230 227 226 230 232 233 236 238 241 246
213 211 209 208 210 212 215 216 216 218 221 225 227 229 231 233 234 236 237 238 239 241 242 241 240 239 240 239 237 234 231 229 227 225 226 229 232 235 239 241 245 248
211 209 207 208 210 212 214 215 215 217 221 223 224 226 229 231 233 234 235 236 238 238 236 235 234 232 229 226 224 224 224 222 222 221 222 226 230 235 240 243 245 246
Height
1524 1527 1529 1531 1533 1534 1536 1537 1539 1540 1542 1542 1543 1544 1545 1546 1548 1549 1551 1553 1553 1555 1556 1557 1559 1560 1561 1561 1562 1562 1563 1564 1565 1566 1567 1568 1568 1569 1569 1570 1572 1572
1521 1524 1526 1528 1530 1532 1533 1535 1536 1537 1539 1540 1540 1541 1543 1544 1545 1547 1549 1551 1552 1554 1555 1556 1557 1558 1559 1560 1560 1561 1561 1563 1564 1565 1566 1566 1567 1568 1569 1570 1570 1571
1518 1520 1522 1524 1526 1529 1530 1532 1534 1535 1536 1537 1538 1540 1541 1542 1543 1545 1547 1549 1550 1552 1553 1554 1555 1556 1558 1558 1559 1559 1560 1561 1562 1563 1564 1565 1566 1567 1568 1568 1569 1569
1514 1517 1519 1521 1523 1526 1528 1529 1531 1532 1533 1534 1536 1538 1539 1540 1541 1542 1544 1546 1548 1549 1551 1552 1554 1555 1556 1557 1557 1558 1558 1559 1560 1561 1562 1563 1564 1565 1566 1567 1567 1568
1512 1514 1516 1518 1520 1523 1525 1526 1527 1528 1530 1531 1533 1535 1536 1538 1539 1540 1542 1544 1545 1547 1548 1550 1551 1553 1554 1555 1555 1556 1557 1557 1558 1559 1560 1561 1562 1563 1564 1565 1565 1566
1509 1511 1512 1515 1517 1520 1522 1523 1524 1525 1527 1529 1530 1532 1534 1535 1537 1537 1539 1541 1542 1544 1545 1547 1549 1550 1551 1552 1553 1554 1555 1556 1557 1557 1558 1559 1560 1561 1562 1562 1563 1564
1505 1507 1509 1512 1515 1517 1518 1520 1521 1522 1524 1526 1528 1529 1531 1532 1534 1535 1536 1538 1540 1541 1542 1544 1545 1547 1548 1549 1551 1552 1553 1554 1555 1555 1556 1557 1558 1559 1559 1560 1561 1562
1501 1503 1506 1509 1512 1514 1515 1516 1517 1519 1521 1523 1524 1526 1527 1529 1531 1533 1534 1536 1537 1538 1539 1541 1542 1544 1546 1547 1548 1549 1550 1551 1552 1553 1554 1554 1555 1556 1557 1558 1559 1559
1497 1500 1503 1506 1508 1510 1511 1512 1514 1516 1518 1520 1521 1523 1524 1526 1528 1530 1532 1533 1534 1535 1536 1538 1539 1540 1542 1544 1545 1547 1548 1548 1550 1550 1551 1552 1553 1553 1554 1555 1556 1557
1493 1496 1499 1502 1504 1506 1507 1508 1511 1513 1514 1516 1518 1520 1522 1523 1525 1527 1529 1530 1531 1532 1533 1534 1536 1537 1538 1540 1542 1544 1545 1546 1547 1548 1548 1550 1550 1551 1552 1553 1554 1555
1489 1492 1495 1497 1500 1501 1502 1505 1507 1509 1511 1513 1515 1517 1518 1520 1522 1523 1525 1526 1527 1528 1530 1531 1532 1533 1535 1537 1539 1541 1542 1543 1544 1545 1546 1547 1548 1549 1550 1551 1552 1552
1485 1488 1490 1493 1496 1497 1499 1501 1504 1505 1507 1509 1511 1513 1515 1517 1518 1519 1520 1522 1523 1525 1526 1527 1528 1530 1531 1533 1536 1538 1540 1541 1542 1543 1544 1545 1546 1546 1547 1549 1550 1550
1481 1483 1486 1488 1491 1493 1495 1497 1500 1501 1503 1505 1507 1509 1511 1512 1514 1515 1516 1518 1520 1522 1523 1524 1525 1526 1528 1530 1533 1535 1537 1538 1539 1540 1541 1542 1543 1544 1545 1546 1547 1548
1477 1479 1481 1484 1486 1489 1491 1494 1495 1497 1499 1501 1503 1505 1507 1508 1509 1511 1513 1514 1516 1518 1520 1521 1522 1523 1524 1526 1529 1531 1534 1535 1536 1538 1539 1540 1541 1542 1543 1543 1544 1546
1473 1475 1477 1480 1483 1485 1487 1489 1491 1493 1495 1497 1499 1500 1502 1504 1506 1508 1510 1511 1513 1515 1516 1518 1519 1519 1521 1522 1525 1528 1530 1532 1534 1535 1536 1538 1539 1540 1541 1541 1542 1543
1469 1471 1474 1476 1478 1480 1482 1485 1487 1490 1492 1494 1495 1497 1499 1502 1504 1506 1507 1508 1510 1512 1513 1514 1515 1516 1518 1520 1522 1524 1527 1530 1531 1533 1534 1536 1537 1538 1539 1539 1539 1540
1465 1467 1469 1471 1473 1476 1478 1481 1484 1486 1489 1491 1493 1495 1497 1500 1502 1503 1505 1506 1508 1509 1511 1511 1512 1514 1515 1517 1520 1522 1525 1527 1529 1531 1532 1533 1535 1536 1537 1537 1537 1538
1461 1463 1465 1467 1469 1472 1475 1478 1481 1484 1486 1489 1491 1493 1495 1497 1500 1501 1503 1505 1506 1507 1508 1509 1510 1511 1513 1515 1517 1519 1522 1525 1527 1529 1530 1531 1532 1533 1534 1535 1535 1536
1456 1459 1460 1463 1465 1469 1472 1475 1478 1481 1484 1486 1489 1491 1493 1495 1497 1499 1500 1502 1503 1504 1505 1506 1508 1509 1511 1513 1515 1517 1520 1523 1525 1527 1528 1529 1530 1530 1531 1532 1533 1533
1452 1454 1456 1459 1462 1466 1470 1472 1475 1478 1481 1484 1486 1489 1491 1492 1494 1495 1497 1499 1500 1501 1502 1503 1504 1506 1508 1511 1513 1515 1518 1521 1523 1524 1525 1526 1527 1527 1528 1529 1530 1531
1447 1450 1453 1456 1460 1463 1466 1469 1472 1475 1478 1481 1484 1486 1487 1489 1490 1492 1493 1495 1497 1498 1500 1500 1502 1504 1506 1509 1511 1514 1516 1518 1520 1521 1521 1522 1523 1524 1525 1526 1527 1528
1442 1445 1449 1452 1457 1460 1463 1467 1470 1472 1475 1478 1480 1482 1483 1485 1487 1488 1490 1491 1493 1495 1496 1497 1499 1501 1504 1507 1509 1511 1513 1515 1516 1517 1518 1519 1520 1522 1523 1524 1525 1526
1437 1441 1444 1449 1453 1457 1460 1463 1466 1469 1472 1474 1476 1478 1479 1481 1483 1485 1486 1488 1489 1490 1492 1493 1495 1498 1500 1503 1505 1507 1509 1511 1512 1514 1515 1516 1517 1519 1521 1521 1522 1523
1433 1436 1440 1445 1450 1453 1456 1459 1462 1465 1468 1471 1473 1474 1476 1478 1480 1482 1484 1486 1488 1489 1490 1491 1493 1494 1496 1499 1502 1504 1506 1507 1509 1511 1512 1513 1514 1516 1518 1518 1519 1521
1429 1432 1436 1440 1445 1449 1452 1455 1458 1462 1466 1468 1470 1472 1474 1476 1478 1480 1483 1485 1487 1489 1491 1492 1492 1492 1494 1496 1498 1501 1503 1504 1506 1507 1509 1510 1512 1513 1515 1516 1517 1518
1424 1427 1431 1435 1440 1445 1448 1452 1456 1460 1463 1465 1468 1470 1472 1474 1476 1478 1481 1483 1485 1487 1489 1490 1490 1490 1492 1493 1496 1498 1500 1502 1503 1505 1506 1508 1509 1510 1512 1513 1515 1516